Regional Weather Roundup
Issued by NWS Charleston, SC

Current Version | Previous Version | Graphics & Text | Print | Product List | Glossary On
Versions: 1 2 3 4 5 6 7 8 9 10 11 12 13 14 15 16 17 18 19 20 21 22 23 24 25 26 27 28 29 30 31 32 33 34 35 36 37 38 39 40 41 42 43 44 45 46 47 48 49 50
000 ASUS42 KCHS 230727 RWRCHS REGIONAL WEATHER ROUNDUP NATIONAL WEATHER SERVICE CHARLESTON SC 300 AM EDT THU MAR 23 2017 NOTE: "FAIR" INDICATES FEW OR NO CLOUDS BELOW 12,000 FEET WITH NO SIGNIFICANT WEATHER AND/OR OBSTRUCTIONS TO VISIBILITY. NOT ALL STATIONS ARE QUALITY CONTROLLED. USE DATA WITH CAUTION... ESPECIALLY DEWPOINT OBSERVATIONS. SCZ027-030-031-034>040-042>050-230800- ...SOUTHEAST SOUTH CAROLINA... CITY SKY/WX TMP DP RH WIND PRES REMARKS N CHARLESTON PTCLDY 52 37 56 E13 30.36R WATERFRONT PRK N/A 56 44 64 NE17 30.33R JOHNS ISLAND FAIR 55 41 58 NE17 30.34S PINOPOLIS N/A 52 43 71 E13 30.29R MONCKS CORNER FAIR 48 37 66 NE9 30.37S SUMMERVILLE FAIR 52 37 58 E5 30.37S BEAUFORT MCAS PTCLDY 57 49 74 E13G20 30.32R BEAUFORT ARPT FAIR 55 46 71 NE16G25 30.32R HILTON HEAD IS CLEAR N/A N/A N/A NE16G25 30.32R WALTERBORO SUNNY 50 43 76 E9 30.36R ALLENDALE FAIR 52 45 76 VRB3 30.34R ...SOUTHERN MIDLANDS AND PEE DEE... CITY SKY/WX TMP DP RH WIND PRES REMARKS GEORGETOWN FAIR 48 36 61 NE10G16 30.40S KINGSTREE FAIR 45 32 61 E6 30.40S ORANGEBURG CLEAR 52 42 69 E9G17 30.36R BARNWELL FAIR 52 45 76 E9 30.35R AIKEN FAIR 45 32 61 NE6 30.38R MANNING FAIR 46 36 66 E3 30.39S COLUMBIA PTCLDY 51 30 44 E8 30.37R SUMTER CLEAR 48 32 54 E7 30.36S FLORENCE CLEAR 43 31 62 E8 30.42R MYRTLE BEACH CLEAR 45 31 58 NE7 30.42S N MYRTLE BEACH CLEAR 43 31 62 NE8 30.40S $$ GAZ063-065-086>088-099>101-113>116-118-119-134>141-150-230800- ...SOUTHEAST GEORGIA... CITY SKY/WX TMP DP RH WIND PRES REMARKS SAVANNAH ARPT CLOUDY 59 50 72 E12 30.30R HUNTER AAF CLOUDY 60 53 80 E9 30.27R FORT STEWART MOCLDY 58 52 78 NE9 30.26S STATESBORO CLOUDY 56 44 64 NE3 30.31S SYLVANIA CLOUDY N/A N/A N/A E8 30.33R CLAXTON CLOUDY N/A N/A N/A N8 30.31R ...CSRA...CENTRAL AND FAR SOUTHEAST GEORGIA... CITY SKY/WX TMP DP RH WIND PRES REMARKS THOMSON PTCLDY 49 31 51 MISG 30.38S AUGUSTA-BUSH PTCLDY 52 31 44 E7 30.34R AUGUSTA-DANIEL MOCLDY 54 26 34 E8 30.34R SWAINSBORO CLOUDY 57 32 38 E5 30.32S VIDALIA CLOUDY 59 52 77 E9 30.30S EASTMAN CLOUDY 62 40 45 E8 30.32R HAZLEHURST FAIR 60 54 82 NE5 30.28S ALMA CLEAR 59 54 83 NE3 30.27R WAYCROSS PTCLDY 62 60 93 NE6 30.26S JESUP FAIR 59 52 77 E3 30.28R BAXLEY FAIR 59 57 94 NE7 30.27S BRUNSWICK MOCLDY 63 59 88 NE12G21 30.27R SAINT SIMONS MOCLDY 62 56 80 NE10 30.25R $$ SCZ027-028-034-036>038-045-046-048>050-GAZ119-141-230800- ...LAKE AND SUPPLEMENTAL COASTAL OBSERVATIONS... STATION/POSITION TIME TEMP WIND PRES WAVE SWELL AIR SEA DIR/SP/G HT/PER HT/PER/DIR (UTC) (F) (DEG/KT/KT) (MB) (FT/S) (FT/S/D) WINYAH BAY 0630 52 60/ 17 1029.0R LAKE MURRAY 0630 52 70/ 7/ 12 1027.4R ACE BASIN NERRS 0630 57 50/ 7 1027.0R FORT PULASKI 0700 60 61 80/ 19/ 27 1026.1 SAPELO ISLAND 0700 62 50/ 12 1025.0 $$ ANZ835-935-AMZ111-154-330-350-352-354-370-450-454-472-230800- ...C-MAN AND BUOY OBSERVATIONS... STATION/POSITION TIME TEMP WIND PRES WAVE SWELL AIR SEA DIR/SP/G HT/PER HT/PER/DIR (UTC) (F) (DEG/KT/KT) (MB) (FT/S) (FT/S/D) BUOY 41004 0650 60 66 50/ 25/ 33 1025.6R 8/ 7 2/ 70/11 BUOY 41008 0650 64 62 60/ 17/ 21 1023.8R 5/ 7 2/ 90/10 FOLLY BEACH CMAN 0700 56 50/ 25/ 29 1027.9R CAPERS NEARSHORE 0608 57 60/ 23/ 31 1027.2R FRIPP NEARSHORE 0708 59 60 60/ 23/ 31 1027.0R STATION/POSITION TIME TEMP WIND PRES WAVE SWELL AIR SEA DIR/SP/G HT/PER HT/PER/DIR (UTC) (F) (DEG/KT/KT) (MB) (FT/S) (FT/S/D) 5E ST. MARYS GA 0700 63 N/A 5/ 6 2/ 90/11 FRYING PAN BUOY 0710 55 64 40/ 21/ 27 1028.3 BUOY 41025 0650 46 75 20/ 23/ 27 1029.9F 10/11 5/ 70/11 CAPE LOOKOUT NC 0700 45 40/ 17/ 20 1030.2S BUOY 41002 0650 61 72 30/ 25/ 29 1024.3R 9/10 7/ 20/10 BUOY 41010 NOT AVBL ST AUGUSTINE FL 0700 66 66 10/ 11/ 12 1023.0R $$

USA.gov is the U.S. government's official web portal to all federal, state and local government web resources and services.